Chamberlain, SD

8:06 PM CST on February 21, 2017 (GMT -0600)
Chamberlain

Weather History for K9V9 - September, 2013

Change the Weather History Date:

Monday, September 9, 2013

  Actual Average Record
Temperature  
Mean Temperature 78 °F -  
Max Temperature 87 °F 79 °F 100 °F (2005)
Min Temperature 69 °F 53 °F 43 °F (2001)
Cooling Degree Days 12    
Growing Degree Days 28 (Base 50)    
Moisture  
Dew Point 65 °F    
Average Humidity 71    
Maximum Humidity 93    
Minimum Humidity 46    
Precipitation  
Precipitation 0.00 in - - ()
Sea Level Pressure  
Sea Level Pressure 29.74 in    
Wind  
Wind Speed 11 mph (North)    
Max Wind Speed 21 mph    
Max Gust Speed 26 mph    
Averages and records for this station are not official NWS values.
T = Trace of Precipitation, MM = Missing Value Source: NWS Daily Summary

Daily Weather History Graph

Daily Weather History Graph

Search for Another Location

Airport or City:

Trip Planner

Search our weather history database for the weather conditions in past years. The results will help you decide how hot, cold, wet, or windy it might be!

Date:

Astronomy

Sep. 09, 2013 Rise Set
Actual Time 7:10 AM CDT 7:58 PM CDT
Civil Twilight 6:40 AM CDT 8:27 PM CDT
Nautical Twilight 6:06 AM CDT 9:01 PM CDT
Astronomical Twilight 5:30 AM CDT 9:37 PM CDT
Moon 11:43 AM CDT (9/9) 10:05 PM CDT (9/9)
Length of Visible Light 13h 46m
Length of Day
12h 47m
Waxing Crescent, 19% of the Moon is Illuminated
Sep 9
Waxing Crescent
Sep 12
First Quarter
Sep 19
Full
Sep 26
Last Quarter
Oct 4
New

Hourly Weather History & Observations

Time (CDT) Temp. Heat Index Dew Point Humidity Pressure Visibility Wind Dir Wind Speed Gust Speed Precip Events Conditions
12:52 AM 73.9 °F - 71.1 °F 91% 29.65 in - South 20.7 mph 26.5 mph N/A   Unknown
1:52 AM 73.0 °F - 71.1 °F 93% 29.66 in - SSE 9.2 mph - N/A   Unknown
2:52 AM 72.0 °F - 70.0 °F 93% 29.68 in - East 3.5 mph - N/A   Unknown
3:52 AM 71.1 °F - 68.0 °F 90% 29.66 in - East 5.8 mph - N/A   Unknown
4:52 AM 70.0 °F - 68.0 °F 93% 29.64 in - SSE 8.1 mph - N/A   Unknown
5:52 AM 70.0 °F - 68.0 °F 93% 29.64 in - SSW 5.8 mph - N/A   Unknown
6:52 AM 71.1 °F - 69.1 °F 93% 29.68 in - North 12.7 mph - N/A   Unknown
7:52 AM 69.1 °F - 64.0 °F 84% 29.70 in - North 11.5 mph - N/A   Unknown
8:52 AM 73.0 °F - 64.0 °F 73% 29.70 in - NNW 9.2 mph - N/A   Unknown
9:52 AM 78.1 °F - 64.0 °F 62% 29.71 in - NNW 12.7 mph - N/A   Unknown
10:52 AM 80.1 °F 82.1 °F 66.0 °F 62% 29.72 in - NW 12.7 mph - N/A   Unknown
11:52 AM 82.9 °F 84.0 °F 63.0 °F 51% 29.72 in - NNW 17.3 mph 20.7 mph N/A   Unknown
12:52 PM 86.0 °F 87.3 °F 64.0 °F 48% 29.73 in - North 12.7 mph 18.4 mph N/A   Unknown
1:52 PM 80.1 °F 81.9 °F 64.9 °F 60% 29.74 in - NNW 16.1 mph - N/A   Unknown
2:52 PM 84.0 °F 84.9 °F 63.0 °F 49% 29.74 in - North 12.7 mph - N/A   Unknown
3:52 PM 86.0 °F 86.8 °F 63.0 °F 46% 29.74 in - North 10.4 mph 20.7 mph N/A   Unknown
4:52 PM 84.9 °F 85.4 °F 62.1 °F 46% 29.77 in - North 15.0 mph 24.2 mph N/A   Unknown
5:52 PM 81.0 °F 82.2 °F 63.0 °F 54% 29.79 in - North 10.4 mph - N/A   Unknown
6:52 PM 79.0 °F - 62.1 °F 56% 29.81 in - NNE 11.5 mph - N/A   Unknown
7:52 PM 75.9 °F - 62.1 °F 62% 29.84 in - North 6.9 mph - N/A   Unknown
8:52 PM 73.9 °F - 63.0 °F 68% 29.83 in - NE 5.8 mph - N/A   Unknown
9:52 PM 72.0 °F - 63.0 °F 73% 29.84 in - NE 4.6 mph - N/A   Unknown
10:52 PM 71.1 °F - 64.0 °F 78% 29.86 in - Calm Calm - N/A   Unknown
11:52 PM 69.1 °F - 64.0 °F 84% 29.89 in - West 4.6 mph - N/A   Unknown